Flag for Norway Weather past 2 weeks in Stavanger, Norway

Now
57 °F

Passing clouds.


Feels Like: 56 °F
Forecast: 57 / 64 °F
Wind: 7 mph from Southeast

Location: Stavanger / Sola

Current Time: Aug 30, 2015 at 8:06:19 AM

Latest Report: Aug 30, 2015 at 7:20 AM


Visibility: N/A

Pressure: 30.04 "Hg

Humidity: 94%

Dew point: 55 °F

Location of StavangerLocation

Historic Weather in Stavanger — Graph

°F

Stavanger temperature yesterday

Maximum temperature yesterday: 64 °F (at 12:50 PM)
Minimum temperature yesterday: 55 °F (at 4:50 AM)
Average temperature yesterday: 61 °F

Past Weeks' High & Low Weather Summary

 TemperatureHumidityPressure
High79 °F (Aug 23, 2:20 PM)100% (Aug 15, 10:20 PM)30.24 "Hg (Aug 15, 10:20 PM)
Low54 °F (Aug 28, 2:50 AM)34% (Aug 19, 4:20 PM)29.47 "Hg (Aug 27, 1:20 PM)
Average66 °F69%29.93 "Hg
* Reported Aug 15 6:50 AM — Aug 30 6:50 AM, Stavanger, Weather by CustomWeather, © 2015

Note: Actual official high and low records may vary slightly from our data, if they occured in-between our weather recording intervals... More about our weather records

Advertising

Stavanger weather history for previous 24 hours

 ConditionsComfort  
Time TempWeatherWind HumidityBarometerVisibility
6:50 AM
Sun, Aug 30
55 °FPassing clouds.6 mph94%30.04 "HgN/A
6:20 AM55 °FPassing clouds.5 mph100%30.04 "HgN/A
5:50 AM55 °FPassing clouds.6 mph94%30.04 "HgN/A
4:50 AM57 °FPassing clouds.8 mph94%30.04 "HgN/A
3:50 AM57 °FPartly cloudy.7 mph94%30.04 "HgN/A
2:50 AM59 °FPartly cloudy.6 mph88%30.04 "HgN/A
1:50 AM59 °FPartly cloudy.5 mph88%30.04 "HgN/A
1:20 AM59 °FPartly cloudy.6 mph88%30.04 "HgN/A
12:50 AM59 °FPartly cloudy.7 mph88%30.04 "HgN/A
12:20 AM61 °FPassing clouds.9 mph83%30.04 "HgN/A
11:50 PM
Sat, Aug 29
61 °FPartly cloudy.10 mph83%30.01 "HgN/A
10:50 PM59 °FScattered showers. Passing clouds.9 mph88%30.01 "HgN/A
10:20 PM59 °FSprinkles. Partly cloudy.12 mph88%30.01 "HgN/A
9:50 PM61 °FPartly cloudy.9 mph88%30.01 "HgN/A
9:20 PM61 °FRain showers. Broken clouds.8 mph88%30.01 "HgN/A
8:50 PM59 °FScattered showers. Broken clouds.7 mph94%30.01 "HgN/A
8:20 PM61 °FBroken clouds.8 mph83%30.01 "HgN/A
7:50 PM61 °FBroken clouds.10 mph88%30.01 "HgN/A
7:20 PM63 °FBroken clouds.10 mph77%30.01 "HgN/A
6:50 PM63 °FBroken clouds.10 mph77%30.01 "HgN/A
6:20 PM63 °FBroken clouds.10 mph77%30.01 "HgN/A
5:50 PM63 °FBroken clouds.14 mph77%30.01 "HgN/A
5:20 PM63 °FBroken clouds.15 mph77%30.01 "HgN/A
4:50 PM63 °FBroken clouds.14 mph77%30.01 "HgN/A
4:20 PM63 °FBroken clouds.15 mph77%30.01 "HgN/A
3:50 PM63 °FScattered showers. Broken clouds.16 mph83%30.01 "HgN/A
3:20 PM63 °FBroken clouds.16 mph77%30.01 "HgN/A
2:50 PM63 °FBroken clouds.17 mph77%30.01 "HgN/A
2:20 PM64 °FBroken clouds.16 mph68%30.01 "HgN/A
1:50 PM64 °FScattered clouds.18 mph68%30.01 "HgN/A
1:20 PM64 °FBroken clouds.16 mph68%30.01 "HgN/A
12:50 PM64 °FBroken clouds.18 mph73%30.01 "HgN/A
11:50 AM63 °FBroken clouds.16 mph77%30.01 "HgN/A
11:20 AM63 °FBroken clouds.16 mph77%30.01 "HgN/A
10:50 AM63 °FBroken clouds.14 mph77%29.98 "HgN/A
9:50 AM63 °FScattered clouds.10 mph83%29.98 "HgN/A
9:20 AM61 °FScattered clouds.9 mph83%29.98 "HgN/A
8:50 AM59 °FScattered clouds.7 mph88%29.98 "HgN/A
Weather by CustomWeather, © 2015

See weather overviewHow to use our weather pages